www.pogodaiklimat.ru

Погода и климат >> Архив погоды >> Австралия >> Южная Австралия >> Таркула


ПОГОДА в Таркуле

  • Прогноз погоды в Таркуле
  • Монитор погоды в Таркуле

АРХИВ ПОГОДЫ в Таркуле

Время (UTC), дата Ветер
(напр.,м/с)
 
Видим.   Явления Облачность Т
(С)
Тd
(С)
f
(%)
Тe
(С)
Тes
(С)
Комфортность P
(гПа)
Po
(гПа)
Тmin
(С)
Tmax
(С)
R
(мм)
R24
(мм)
S
(см)
19 14.04 СВ 5 н/о н/о +24.2 +4.0 27 +24 +24 комфорт 1013.2 998.8
20 14.04 СВ 5 н/о н/о +24.1 +4.0 27 +24 +24 комфорт 1013.4 999.0
22 14.04 СВ 5 н/о н/о +24.0 +3.9 27 +24 +24 комфорт 1014.1 999.7
23 14.04 С 6 н/о н/о +26.2 +4.1 24 +25 +25 комфорт 1014.9 1000.5
01 15.04 С 8 н/о н/о +29.1 +3.1 19 +27 +27 жарко 1014.5 1000.1
02 15.04 С 9 н/о н/о +30.3 +2.5 17 +28 +28 жарко 1014.4 1000.0 +23.4
04 15.04 С 7 н/о н/о +31.9 +2.1 15 +29 +29 жарко 1012.3 997.9
05 15.04 СЗ 9 н/о н/о +32.0 +2.1 15 +29 +29 жарко 1012.7 998.3
07 15.04 С 7 н/о н/о +32.4 +1.5 14 +29 +29 жарко 1012.3 997.9
08 15.04 С 5 н/о н/о +32.1 +1.3 14 +29 +29 жарко 1012.4 998.0
10 15.04 штиль 0 н/о н/о +24.3 +0.6 21 +23 +23 комфорт 1013.9 999.5
11 15.04 штиль 0 н/о н/о +22.3 +0.2 23 +22 +22 комфорт 1014.3 999.9
13 15.04 СВ 1 н/о н/о +18.4 -0.9 27 +20 +20 1015.4 1000.9
14 15.04 СВ 3 н/о н/о +18.6 -0.2 28 +19 +19 1015.2 1000.7 +33.7
16 15.04 СВ 2 н/о н/о +16.4 -1.7 29 +17 +17 1014.8 1000.4
17 15.04 СВ 2 н/о н/о +15.6 -1.0 32 +16 +16 1014.7 1000.3
19 15.04 СВ 4 н/о н/о +14.6 -1.5 33 +14 +14 1014.7 1000.3
20 15.04 В 4 н/о н/о +16.4 +1.3 36 +16 +16 1015.4 1000.9
22 15.04 СВ 3 н/о н/о +19.6 +2.5 32 +20 +20 1016.1 1001.6
23 15.04 С 5 н/о н/о +25.2 +3.8 25 +24 +24 комфорт 1016.8 1002.3
01 16.04 С 10 н/о н/о +32.3 +5.0 18 +30 +30 жарко 1016.6 1002.1
02 16.04 С 10 н/о н/о +33.9 +3.7 15 +31 +31 жарко 1016.2 1001.7 +14.4
04 16.04 С 9 н/о н/о +35.6 +3.0 13 +32 +32 жарко 1014.1 999.7
05 16.04 С 8 н/о н/о +36.5 +2.5 12 +33 +33 жарко 1013.2 998.8
07 16.04 С 6 н/о н/о +36.2 +2.3 12 +33 +33 жарко 1012.5 998.1
08 16.04 С 8 н/о н/о +34.9 +2.4 13 +32 +32 жарко 1012.7 998.3
10 16.04 СВ 4 н/о н/о +30.0 +2.3 17 +28 +28 жарко 1013.7 999.3
11 16.04 СВ 5 н/о н/о +30.2 +2.5 17 +28 +28 жарко 1014.2 999.8
13 16.04 СВ 7 н/о н/о +30.0 +3.1 18 +28 +28 жарко 1014.3 999.9
14 16.04 СВ 8 н/о н/о +29.5 +1.9 17 +27 +27 жарко 1013.8 999.4 +37.5
16 16.04 С 8 н/о н/о +27.9 +1.4 18 +26 +26 жарко 1013.7 999.3
17 16.04 С 7 н/о н/о +27.1 +1.5 19 +25 +25 комфорт 1013.7 999.3
19 16.04 С 7 н/о н/о +26.7 +1.9 20 +25 +25 комфорт 1013.9 999.5
20 16.04 С 5 н/о н/о +26.1 +2.1 21 +25 +25 комфорт 1014.7 1000.3
22 16.04 С 5 н/о н/о +25.9 +1.9 21 +24 +24 комфорт 1016.1 1001.6
23 16.04 С 7 н/о н/о +27.0 +2.1 20 +25 +25 комфорт 1016.4 1001.9
01 17.04 С 9 н/о н/о +32.1 +2.2 15 +29 +29 жарко 1016.9 1002.4
02 17.04 С 9 н/о н/о +33.0 +2.9 15 +30 +30 жарко 1016.9 1002.4 +25.4
04 17.04 З 3 н/о н/о +34.0 +2.8 14 +31 +31 жарко 1015.8 1001.3
05 17.04 ЮЗ 4 н/о н/о +34.9 +2.4 13 +32 +32 жарко 1015.4 1000.9
07 17.04 ЮЗ 9 н/о н/о +31.5 +9.1 25 +31 +31 жарко 1016.3 1001.8
08 17.04 ЮЗ 9 н/о н/о +29.0 +10.6 32 +29 +29 жарко 1017.2 1002.7
10 17.04 Ю 8 н/о н/о +23.9 +12.2 48 +26 +26 жарко 1020.1 1005.6
11 17.04 Ю 8 н/о н/о +22.6 +11.7 50 +25 +25 комфорт 1021.0 1006.5
13 17.04 Ю 5 н/о н/о +21.0 +10.5 51 +23 +23 комфорт 1022.4 1007.8
14 17.04 Ю 6 н/о н/о +20.5 +11.2 55 +22 +22 комфорт 1022.5 1007.9 +35.8
16 17.04 Ю 5 н/о н/о +18.4 +11.0 62 +18 +18 1022.4 1007.8
17 17.04 Ю 4 н/о н/о +17.6 +10.9 65 +17 +17 1022.1 1007.6
19 17.04 Ю 4 н/о н/о +17.1 +10.9 67 +17 +17 1021.9 1007.4
20 17.04 Ю 3 н/о н/о +16.9 +11.2 69 +17 +17 1022.4 1007.8
22 17.04 Ю 2 н/о н/о +15.3 +10.5 73 +15 +15 1023.1 1008.5
23 17.04 ЮВ 7 н/о н/о +18.5 +10.8 61 +18 +18 1023.5 1008.9
01 18.04 В 5 н/о н/о +22.8 +10.6 46 +25 +25 комфорт 1023.3 1008.7
02 18.04 В 4 н/о н/о +24.3 +9.8 40 +25 +25 комфорт 1022.9 1008.3 +14.2
04 18.04 Ю 3 н/о н/о +27.9 +8.7 30 +28 +28 жарко 1020.8 1006.3
05 18.04 С 2 н/о н/о +29.3 +8.4 27 +29 +29 жарко 1020.1 1005.6
07 18.04 ЮЗ 2 н/о н/о +30.6 +8.3 25 +30 +30 жарко 1019.2 1004.7
08 18.04 З 2 н/о н/о +30.6 +8.3 25 +30 +30 жарко 1019.1 1004.6
10 18.04 Ю 3 н/о н/о +25.5 +7.1 31 +25 +25 комфорт 1019.7 1005.2
11 18.04 ЮВ 2 н/о н/о +22.9 +5.3 32 +23 +23 комфорт 1020.1 1005.6
13 18.04 В 4 н/о н/о +24.5 +8.5 36 +25 +25 комфорт 1020.5 1006.0
14 18.04 СВ 4 н/о н/о +23.1 +8.8 40 +24 +24 комфорт 1020.8 1006.3 +31.5
16 18.04 СВ 4 н/о н/о +21.4 +6.1 37 +22 +22 комфорт 1019.6 1005.1
17 18.04 СВ 3 н/о н/о +20.8 +3.5 32 +22 +22 комфорт 1019.3 1004.8
19 18.04 СВ 5 н/о н/о +23.0 +3.0 27 +23 +23 комфорт 1018.7 1004.2
20 18.04 С 4 н/о н/о +22.1 +3.3 29 +22 +22 комфорт 1019.4 1004.9
22 18.04 СВ 5 н/о н/о +22.6 +4.2 30 +23 +23 комфорт 1019.9 1005.4
23 18.04 СВ 9 н/о н/о +25.9 +3.8 24 +25 +25 комфорт 1019.7 1005.2
01 19.04 СВ 9 н/о н/о +30.6 +1.0 15 +28 +28 жарко 1019.5 1005.0
02 19.04 СВ 11 н/о н/о +31.8 +1.0 14 +29 +29 жарко 1019.0 1004.5 +20.5
04 19.04 С 10 н/о н/о +34.3 +3.0 14 +31 +31 жарко 1016.7 1002.2
05 19.04 С 9 н/о н/о +33.9 +2.7 14 +31 +31 жарко 1015.9 1001.4
07 19.04 С 10 н/о н/о +32.4 +2.5 15 +30 +30 жарко 1015.4 1000.9
08 19.04 С 10 н/о н/о +32.1 +2.2 15 +29 +29 жарко 1015.5 1001.0
10 19.04 СВ 5 н/о н/о +29.4 +2.6 18 +27 +27 жарко 1016.1 1001.6
11 19.04 СВ 5 н/о н/о +27.7 +2.7 20 +26 +26 жарко 1016.4 1001.9
13 19.04 СВ 4 н/о н/о +24.3 +3.0 25 +24 +24 комфорт 1016.6 1002.1
14 19.04 СВ 5 н/о н/о +25.1 +2.5 23 +24 +24 комфорт 1016.3 1001.8 +34.7
16 19.04 СВ 5 н/о н/о +23.8 +2.6 25 +23 +23 комфорт 1015.5 1001.0
17 19.04 СВ 5 н/о н/о +22.8 +2.3 26 +22 +22 комфорт 1015.0 1000.6
19 19.04 СВ 5 н/о н/о +23.0 +2.5 26 +23 +23 комфорт 1014.3 999.9
20 19.04 СВ 4 н/о н/о +22.5 +2.6 27 +22 +22 комфорт 1014.7 1000.3
22 19.04 СВ 4 н/о н/о +21.8 +2.5 28 +22 +22 комфорт 1015.7 1001.2
23 19.04 СВ 6 н/о н/о +25.0 +1.8 22 +24 +24 комфорт 1016.1 1001.6
01 20.04 С 8 н/о н/о +29.4 +1.8 17 +27 +27 жарко 1016.0 1001.5
02 20.04 С 10 н/о н/о +29.9 +2.2 17 +28 +28 жарко 1015.5 1001.0 +21.7
04 20.04 С 9 н/о н/о +31.7 +2.8 16 +29 +29 жарко 1013.3 998.9
05 20.04 С 9 н/о н/о +32.0 +3.1 16 +29 +29 жарко 1012.0 997.6
07 20.04 С 8 н/о н/о +31.7 +3.7 17 +29 +29 жарко 1011.9 997.5
08 20.04 С 5 н/о н/о +31.0 +3.1 17 +29 +29 жарко 1011.8 997.4
10 20.04 ЮЗ 11 н/о н/о +18.2 +12.4 69 +17 +17 1016.1 1001.6
11 20.04 ЮЗ 12 н/о н/о +16.6 +11.7 73 +15 +15 1017.9 1003.4
13 20.04 ЮЗ 9 н/о н/о +15.2 +10.4 73 +13 +13 1019.4 1004.9
14 20.04 ЮЗ 7 н/о н/о +14.6 +9.8 73 +13 +13 1020.0 1005.5 +33.5
16 20.04 ЮЗ 4 н/о н/о +13.7 +10.9 83 +12 +12 1020.0 1005.5
17 20.04 ЮЗ 4 н/о н/о +13.2 +10.9 86 +12 +12 1019.6 1005.1
19 20.04 Ю 3 н/о н/о +12.5 +9.0 79 +11 +11 1019.8 1005.3
20 20.04 ЮЗ 2 н/о н/о +11.4 +8.8 84 +11 +11 1020.4 1005.9
22 20.04 ЮЗ 2 н/о н/о +11.1 +9.2 88 +10 +10 1021.7 1007.2
23 20.04 ЮЗ 4 н/о н/о +13.8 +10.0 78 +12 +12 1022.7 1008.1
01 21.04 ЮЗ 6 н/о н/о +16.3 +7.3 55 +15 +15 1023.4 1008.8
02 21.04 Ю 4 н/о туман местами н/о +18.5 +7.6 49 +19 +19 1023.3 1008.7 +10.5
04 21.04 ЮЗ 6 н/о н/о +20.6 +4.6 35 +21 +21 комфорт 1021.6 1007.1
05 21.04 Ю 6 н/о {туман} н/о +22.6 +4.2 30 +23 +23 комфорт 1021.2 1006.7 0.2
07 21.04 Ю 8 н/о н/о +19.7 +5.4 39 +20 +20 1021.3 1006.8
08 21.04 ЮЗ 7 н/о н/о +19.4 +5.8 41 +19 +19 1021.9 1007.4
10 21.04 Ю 5 н/о н/о +16.9 +6.4 50 +16 +16 1023.9 1009.3
11 21.04 Ю 5 н/о н/о +16.0 +6.2 52 +15 +15 1024.6 1010.0
13 21.04 ЮЗ 4 н/о н/о +13.8 +6.9 63 +12 +12 1025.3 1010.7
14 21.04 Ю 4 н/о н/о +13.1 +7.1 67 +12 +12 1025.2 1010.6 +22.7
16 21.04 ЮЗ 3 н/о н/о +10.3 +6.1 75 +8 +8 1024.8 1010.2
17 21.04 ЮЗ 3 н/о н/о +9.4 +5.9 79 +7 +7 1024.8 1010.2
19 21.04 ЮЗ 3 н/о н/о +8.0 +5.5 84 +5 +5 1024.7 1010.1

 

Местоположение метеостанции Таркула (Южная Австралия, Австралия): широта -30.72 долгота 134.58 высота над уровнем моря 124 м.

В архиве по умолчанию представлена погода в Таркуле за последнюю неделю. Архивные данные за месяц целиком и за предыдущие месяцы, начиная с января 2011 года, Вы можете получить, выбрав интересующий диапазон дат из раскрывающегося списка и нажав кнопку "Ввод!".


*Определитесь, кто Вы:
робот инопланетянин человек

Внимание! Время в таблицах - всемирное. Для получения местного времени необходимо прибавить поправку, которая равна 9.5 ч.

Смотрите также архив погоды в соседних городах и на ближайших метеорологических станциях:

Погода в Сидуне (Южная Австралия, Австралия) (178 км)
Погода в Кубер-Педи (Южная Австралия, Австралия) (188 км)
Погода на Аэродроме Вумера (Южная Австралия, Австралия) (218 км)
Погода в Олимпик Дэм (Южная Австралия, Австралия) (222 км)
Погода в Миннипа Пирса (Южная Австралия, Австралия) (243 км)
Погода в Уудинне (Южная Австралия, Австралия) (272 км)
Погода в Марри (Южная Австралия, Австралия) (355 км)
Погода в Порт Огаста (Южная Австралия, Австралия) (358 км)
Погода в Наллаборе (Южная Австралия, Австралия) (360 км)
Погода в Однадатте (Южная Австралия, Австралия) (363 км)

Пояснения к столбцам:

Ветер - указаны скорость ветра в м/с - средняя за 10 мин, порывы в срок и между сроками (в фигурных скобках) и направление, откуда дует ветер: С - северный, СВ - северо-восточный, В - восточный, ЮВ - юго-восточный, Ю - южный, ЮЗ - юго-западный, З - западный, СЗ - северо-западный.
Видимость - горизонтальная дальность видимости в метрах или километрах. При видимости от 1 до 10 км при отсутствии осадков обычно наблюдается дымка, при ухудшении видимости до 1 км и менее - туман. В сухую погоду видимость может ухудшаться дымом, пылью или мглою.
Явления - указаны атмосферные явления, наблюдавшиеся в срок или в последний час перед сроком; фигурными скобками обозначены явления, наблюдавшиеся между сроками (за 1-3 часа до срока); квадратными скобками обозначены град или гололедные отложения с указанием их диаметра в мм.
Облачность - указаны через наклонную черту общая и нижняя облачность в баллах и высота нижней границы облаков в метрах; квадратными скобками обозначены формы облаков: Ci - перистые, Cs - перисто-слоистые, Cc - перисто-кучевые, Ac - высококучевые, As - высокослоистые, Sc - слоисто-кучевые, Ns - слоисто-дождевые, Cu - кучевые, Cb - кучево-дождевые. Подробнее классификацию облаков см. в Атласе облаков (PDF).
T - Температура воздуха - температура, измеренная на высоте 2 м над землей.
Td - Температура точки росы - температура, при понижении до которой содержащийся в воздухе водяной пар достигнет насыщения.
f - Относительная влажность воздуха - влажноcть воздуха, измеренная на высоте 2 м над землей.
Te - Эффективная температура - температура, которую ощущает одетый по сезону человек в тени. Характеристика душности погоды. При расчете учитывается влияние влажности воздуха и скорости ветра на теплоощущения человека.
Tes - Эффективная температура на солнце - температура, которую ощущает человек, с поправкой на солнечный нагрев. Характеристика знойности погоды. Зависит от высоты солнца над горизонтом, облачности и скорости ветра. Ночью, в пасмурную погоду, а также при ветре 12 м/с и более поправка равна нулю.
P - Атмосферное давление - приведенное к уровню моря атмосферное давление.
Po - Атмосферное давление - измеренное на уровне метеостанции атмосферное давление.
Tmin - Минимальная температура - минимум температуры воздуха на высоте 2 м над землей.
Tmax - Максимальная температура - максимум температуры воздуха на высоте 2 м над землей.
R - Количество осадков - Количество выпавших осадков за период времени, мм. При наведении курсора мыши на число - период времени, за который выпало указанное количество осадков.
R24 - Количество осадков - Количество выпавших осадков за 24 часа, мм.
S - Снежный покров - Высота снежного покрова, см. При наведении курсора мыши на число - состояние снежного покрова и степень покрытия местности в баллах.